Wind_Speed
4 3 1 3 5 6 6 5 5 4 4 5 5 5 4 2 3 5 4 5 2 2 1 3 4 7 6 6 6 4 3 3 6 4 6 6 5 6 6 7 8 8 6 5 9 16 21 22 23 23 23 24 25 26 26 25 25 24 23 23 23 23 21 20 19 18 16 14 13 12 10 8 7 7 7 6 4 3 1 1 1 1 2 3 3 4
5 2 4 7 9 7 5 5 4 4 4 4 5 4 1 2 3 5 3 5 4 1 3 1 1 7 7 6 5 2 1 4 8 8 7 7 7 6 7 8 8 6 3 5 8 13 19 20 20 22 22 24 25 27 27 27 26 25 24 24 24 24 22 20 19 18 17 15 14 13 11 10 9 9 8 7 5 3 2 1 1 1 2 2 2 3
5 2 8 8 6 4 3 5 6 5 5 4 3 3 1 2 3 5 3 5 4 1 4 3 4 6 7 7 6 3 4 5 7 9 9 10 9 8 9 9 8 7 6 6 7 11 18 20 20 21 22 24 25 27 28 27 27 26 26 26 25 25 23 20 19 18 17 16 14 12 11 10 10 10 9 7 6 4 3 2 1 1 3 3 3 3
2 5 7 3 6 6 3 3 6 4 2 3 3 2 2 3 1 3 4 6 4 1 1 2 3 6 6 6 6 4 3 3 4 7 7 7 10 10 10 9 10 10 9 9 9 10 14 17 20 22 22 23 24 26 28 28 28 28 28 27 26 25 23 21 20 19 19 17 15 12 11 11 10 10 9 7 5 3 3 2 1 1 2 4 4 3
5 7 5 5 5 5 2 2 5 4 1 2 2 4 2 2 3 4 4 5 4 3 3 4 5 5 5 5 6 5 4 1 0 3 4 5 7 6 5 7 10 12 11 12 11 10 12 17 21 22 23 24 25 28 31 31 30 29 28 28 27 26 24 23 22 22 21 19 16 14 13 12 10 11 10 8 7 5 4 3 2 1 2 3 3 3
7 5 3 4 2 3 4 2 3 6 2 4 3 6 6 5 4 3 3 5 5 4 4 4 2 5 5 5 6 4 6 5 3 2 3 6 5 4 5 8 9 10 10 11 11 12 14 17 19 20 22 25 27 30 32 32 30 29 28 28 28 27 26 25 24 24 22 20 18 17 16 14 13 13 12 9 8 7 5 4 3 2 1 2 3 4
4 3 4 4 3 4 3 3 5 6 5 2 4 6 7 6 4 2 1 3 2 3 4 3 3 4 5 5 6 4 6 8 7 6 5 5 5 6 7 8 8 9 9 9 10 11 12 15 16 19 25 29 31 31 31 30 30 30 29 29 30 29 28 27 26 25 23 21 19 19 19 17 15 15 12 9 8 7 6 5 5 3 2 3 3 3
3 2 5 5 5 5 2 3 5 7 7 3 4 6 8 6 4 4 4 3 2 3 4 4 3 2 4 4 5 5 6 8 8 8 9 5 4 6 7 7 8 11 12 11 12 12 12 16 19 24 30 33 31 29 30 31 32 32 31 31 31 30 30 29 28 26 24 22 21 21 21 19 16 14 11 10 9 8 7 6 6 5 4 4 4 4
2 2 2 2 5 3 3 4 7 9 5 5 5 7 6 5 5 5 5 3 1 1 3 6 2 1 4 5 5 5 4 7 8 8 9 8 6 4 6 8 9 12 12 12 13 13 13 18 25 31 33 31 29 28 31 33 33 33 32 32 32 31 31 31 30 28 26 24 22 22 23 22 17 13 11 11 10 9 8 7 6 6 5 5 5 5
3 5 5 4 4 3 6 4 7 9 3 4 6 7 5 6 5 4 5 3 3 2 4 6 1 1 4 6 5 3 2 5 7 7 7 7 8 8 8 9 9 10 11 12 13 13 16 24 30 30 27 25 25 27 30 32 33 33 32 32 33 33 33 33 32 29 27 26 24 23 24 24 20 15 14 12 11 10 9 8 7 7 7 6 6 6
4 3 2 3 3 5 4 2 3 5 3 3 5 6 6 6 5 4 3 4 4 1 6 7 2 2 2 5 4 2 1 3 5 6 7 7 8 9 9 9 8 9 9 11 12 12 15 20 22 21 20 21 23 24 27 30 32 33 34 34 35 35 34 34 33 31 29 28 26 25 26 26 22 18 17 15 14 12 11 10 9 9 8 7 7 6
6 3 2 3 3 4 5 4 2 3 4 4 4 5 4 3 4 4 4 3 3 3 6 5 1 4 2 4 3 4 5 5 4 5 7 8 9 9 7 6 7 7 8 9 9 8 8 10 14 18 20 21 22 24 27 31 34 35 35 35 35 35 35 35 34 32 30 29 27 26 27 27 23 20 19 18 17 15 13 12 11 10 10 9 8 7
5 4 4 5 3 3 5 3 3 5 5 5 4 4 3 2 3 2 3 1 2 5 3 2 1 2 4 5 4 7 7 6 4 5 6 7 8 8 5 5 5 4 5 7 7 6 7 7 11 16 20 23 25 28 30 32 35 36 35 35 36 37 37 36 35 33 32 30 29 28 29 29 25 21 21 20 18 16 15 14 13 12 11 10 9 8
4 5 5 3 3 1 5 4 1 1 1 4 4 4 3 2 2 1 3 1 2 4 2 2 1 1 3 3 4 6 7 6 4 4 6 6 7 6 5 6 5 4 3 4 5 6 7 7 8 12 18 22 26 28 31 33 36 36 34 34 36 36 37 37 36 34 33 32 31 30 30 30 26 23 22 21 19 17 15 15 14 13 12 11 10 9
0 5 4 2 2 2 2 5 5 5 3 3 4 5 4 4 4 3 3 2 3 2 2 2 1 2 2 2 5 5 6 6 5 5 5 5 7 3 8 8 7 6 5 3 1 3 5 7 8 10 13 16 18 22 26 30 34 35 35 36 36 36 37 38 37 35 34 33 32 31 32 31 27 24 23 22 21 19 17 16 15 14 13 11 9 9
2 5 6 4 2 1 1 2 5 6 2 1 3 5 2 4 4 2 3 4 3 1 1 1 2 3 2 3 5 4 5 6 5 4 3 4 6 6 10 9 8 7 6 5 3 1 2 6 9 9 11 12 12 16 20 23 26 30 31 32 34 36 37 38 38 37 36 34 33 33 33 32 29 26 25 24 23 21 19 18 16 15 14 11 10 10
1 4 6 4 3 1 1 1 3 3 2 1 2 3 4 4 7 4 1 1 3 2 3 1 2 2 1 1 4 4 5 5 5 4 4 5 7 8 9 7 8 8 7 7 6 3 2 3 7 10 12 13 13 14 17 19 21 23 23 24 27 29 31 35 37 37 36 35 34 35 35 33 30 29 27 26 25 24 22 20 18 17 15 14 12 12
2 4 6 2 1 3 2 2 3 2 4 4 2 5 3 3 5 4 1 2 4 2 4 1 2 2 1 1 3 3 2 2 5 5 5 7 7 8 7 7 7 7 7 8 8 7 5 3 3 10 13 15 16 15 16 18 19 18 19 22 24 26 28 32 34 35 36 36 36 36 36 35 33 31 29 28 27 25 23 23 21 19 18 16 15 14
2 2 7 2 1 5 5 4 3 5 3 4 4 3 3 2 1 1 2 1 1 2 3 3 2 2 3 4 3 3 3 1 6 5 5 7 7 7 6 6 7 7 7 8 9 8 7 8 6 2 9 13 14 14 15 18 18 18 20 22 24 26 27 28 30 33 34 34 33 33 33 34 34 32 31 29 28 27 25 25 24 22 20 18 16 16
2 1 5 4 2 4 4 3 1 4 3 2 2 3 2 3 3 2 2 3 3 2 2 3 3 2 5 5 3 5 5 3 4 5 5 6 6 6 5 6 6 6 6 6 7 7 7 10 15 12 3 7 11 12 14 16 18 21 23 23 24 25 26 26 27 29 31 31 32 33 32 32 33 33 32 31 30 29 27 26 25 24 22 20 18 17
2 2 3 5 4 2 1 1 3 4 1 2 2 2 1 2 2 1 1 2 3 3 3 1 2 4 5 3 3 5 6 5 3 3 5 5 6 6 6 6 6 6 6 6 6 6 6 10 16 20 17 8 2 6 10 13 16 20 22 23 24 25 26 28 29 29 30 31 35 37 37 35 35 34 34 33 32 31 29 28 27 25 23 22 21 19
1 2 3 3 4 1 4 4 2 4 4 3 2 2 2 3 3 2 1 2 1 3 4 4 2 6 5 3 4 5 5 4 3 3 4 5 5 5 6 6 6 6 6 6 6 5 6 9 13 19 23 21 16 12 6 3 9 14 18 20 23 25 27 29 31 32 32 33 36 39 38 36 35 35 35 35 34 33 31 30 29 27 25 24 23 21
1 3 1 3 4 4 7 5 1 1 3 4 2 1 3 3 4 4 3 3 0 1 2 4 2 5 5 3 4 4 3 3 4 2 2 4 5 5 6 6 5 5 5 5 6 6 7 10 13 16 19 20 21 21 19 14 8 1 8 13 18 23 26 28 31 32 32 33 36 37 36 35 35 35 35 36 35 34 33 32 30 28 27 26 25 23
1 2 1 3 4 4 6 4 3 3 4 4 1 1 3 2 3 4 4 3 2 3 2 2 1 5 5 3 2 3 2 1 2 2 3 3 5 5 5 5 5 5 5 5 5 6 8 12 15 16 17 18 20 21 23 23 21 16 9 3 9 17 22 25 27 29 31 32 33 33 35 38 38 36 36 37 37 37 36 34 32 30 28 27 26 25
1 0 1 2 4 6 6 5 5 5 3 2 1 2 2 3 5 3 1 3 1 3 4 4 4 5 4 3 4 4 2 3 3 2 2 3 4 4 5 5 5 6 6 7 6 6 8 9 11 13 15 18 20 22 23 24 24 23 20 16 9 7 13 18 21 24 28 30 32 35 39 41 39 37 38 39 38 38 37 35 33 31 29 28 27 26
1 1 2 2 2 3 2 3 3 2 1 0 2 3 0 4 5 2 1 3 1 3 3 4 4 4 4 5 4 4 3 5 5 3 3 3 2 2 3 4 5 5 6 7 7 7 7 7 8 12 15 17 19 21 22 22 22 22 22 20 18 14 9 10 15 20 23 27 31 35 39 40 38 37 38 39 40 39 37 35 33 31 30 29 28 27
2 0 2 5 5 6 6 6 5 3 1 1 1 3 3 1 3 4 4 3 4 3 2 5 4 1 5 6 5 5 2 2 3 3 3 2 2 3 4 4 5 5 5 5 6 6 6 7 8 11 15 17 18 18 19 20 21 22 22 21 21 19 16 12 9 13 20 24 28 31 35 37 38 39 39 39 39 39 36 35 33 32 31 30 29 28
4 2 2 4 5 6 6 7 4 1 3 4 4 5 6 3 3 5 4 4 4 4 4 7 5 4 6 7 6 6 5 3 3 1 0 1 1 2 3 4 4 5 4 4 5 5 6 7 7 9 12 15 16 17 18 19 20 21 22 22 22 21 20 18 14 10 14 21 25 29 31 34 37 39 38 36 37 37 36 35 34 34 32 31 30 30
4 2 3 2 4 6 5 6 4 1 4 4 5 7 8 5 6 7 7 6 6 6 7 6 7 7 7 6 7 7 5 5 5 3 2 2 1 1 2 3 4 5 5 5 6 6 6 6 6 8 11 14 16 18 19 20 21 23 23 23 24 24 23 22 20 16 12 16 23 27 30 32 34 36 35 35 36 37 38 38 37 36 34 33 32 31
3 2 3 3 3 6 5 6 4 4 4 4 5 7 7 7 8 8 7 6 7 8 8 5 8 9 7 7 8 7 5 5 4 3 2 2 1 1 1 2 4 5 5 6 6 5 5 5 6 8 11 13 14 16 17 19 21 23 24 25 26 26 25 25 24 22 18 16 19 24 28 30 32 33 34 36 37 39 40 39 38 37 36 35 33 30
1 2 2 2 3 6 5 5 5 5 5 5 7 7 4 5 6 5 4 4 4 6 7 5 6 8 7 6 6 3 0 1 2 3 3 2 2 3 2 1 3 4 5 6 6 6 5 5 6 7 9 11 12 13 15 17 19 21 23 25 26 27 27 26 25 24 23 20 19 20 24 27 30 32 34 35 37 37 36 33 33 34 34 34 32 29
1 1 1 1 3 5 3 5 7 5 4 7 8 6 5 6 6 5 5 5 6 6 6 4 5 7 6 5 4 2 1 1 4 5 4 3 4 5 4 2 2 4 5 5 6 6 6 6 6 8 10 12 13 13 14 15 17 20 22 24 25 27 27 27 26 25 24 23 21 20 22 25 28 30 32 33 33 32 29 27 29 31 32 32 31 29
2 2 0 2 2 3 3 6 6 3 5 8 7 8 11 10 8 6 5 5 7 6 5 6 6 6 5 6 6 5 4 4 5 5 3 3 4 5 4 3 3 4 5 5 6 6 6 7 8 11 13 14 14 14 15 15 17 20 22 23 25 26 26 26 26 26 26 25 23 21 21 24 27 29 30 30 29 29 28 30 33 34 33 32 30 29
1 2 2 3 2 3 2 2 1 1 5 8 5 7 10 11 11 11 8 8 8 6 4 4 4 3 5 8 8 8 6 5 3 3 3 3 4 5 5 5 4 5 5 5 6 6 6 9 12 14 15 15 15 15 16 17 19 21 22 24 25 25 25 25 25 25 26 26 25 23 21 23 25 27 28 27 27 28 30 33 34 33 33 32 30 29
2 2 2 1 2 2 1 4 1 5 7 4 4 3 2 3 7 10 9 7 5 4 2 2 2 2 4 4 4 4 3 3 4 5 6 4 5 5 5 5 5 5 5 6 6 6 8 11 13 16 17 18 17 17 19 21 23 24 24 24 25 25 25 25 24 24 25 26 25 23 21 21 23 25 25 25 27 30 33 35 36 36 34 33 30 28
3 3 2 1 1 1 1 3 4 6 6 5 5 4 2 2 2 2 5 6 3 1 2 0 1 1 2 1 2 1 2 4 5 5 7 5 5 6 6 6 5 4 5 7 7 8 12 14 15 18 19 19 19 20 23 25 27 27 27 26 25 25 25 24 23 23 23 24 25 23 20 21 22 23 24 26 28 31 33 35 38 38 36 32 29 28
5 3 2 1 1 2 2 3 3 4 7 6 4 3 2 1 1 2 3 5 4 2 2 4 2 1 2 3 4 3 3 4 5 5 6 5 5 7 7 7 7 6 8 10 12 14 17 18 19 20 19 18 20 23 26 28 29 29 29 27 26 26 25 22 21 22 22 23 24 22 21 21 22 23 25 27 29 32 35 36 37 37 35 32 30 29
4 3 3 3 1 2 1 3 3 3 5 5 4 4 3 3 3 2 2 2 4 3 1 3 2 2 3 4 3 2 3 3 3 5 7 6 5 6 7 9 10 11 12 13 15 17 19 20 20 19 18 18 21 24 27 29 30 29 29 28 27 27 25 21 21 22 23 23 23 22 21 21 22 24 26 28 31 34 34 33 32 33 33 32 31 29
3 1 3 3 1 1 2 2 2 2 4 5 5 6 5 2 4 2 2 1 2 3 1 0 1 3 5 4 2 3 4 1 3 5 6 7 6 6 6 8 11 14 16 16 17 19 20 21 20 18 18 19 22 25 27 29 29 27 27 27 26 26 25 22 22 24 24 24 23 21 20 21 23 25 27 29 31 34 33 30 30 31 30 29 27 24
4 4 3 1 2 2 2 3 3 3 4 3 4 6 6 1 4 4 0 4 4 4 2 2 3 6 5 3 2 4 4 4 5 5 6 6 5 6 7 8 10 13 16 18 18 19 20 20 19 19 20 21 24 26 27 29 29 26 25 26 25 24 24 24 25 25 25 25 23 21 20 21 23 26 28 29 31 33 34 34 34 32 28 24 21 19
2 2 1 1 2 2 2 2 3 3 3 3 4 6 5 2 2 2 3 4 4 5 3 4 4 6 4 3 4 4 5 7 5 5 6 6 7 7 10 13 15 15 17 19 19 19 19 20 20 21 22 24 25 26 28 28 27 26 26 25 24 25 26 26 26 25 25 24 22 20 20 21 23 26 28 30 32 34 34 35 33 29 25 23 22 21
1 2 2 1 1 1 2 2 3 4 3 2 3 4 3 1 1 3 3 3 4 5 4 4 5 5 4 4 5 5 6 7 6 7 7 7 8 9 10 13 15 15 17 19 19 19 20 20 21 22 24 25 25 26 27 26 26 27 26 25 26 28 28 27 26 25 24 23 21 19 19 20 22 24 25 27 30 32 32 30 27 24 24 25 23 20
1 1 3 2 2 1 1 1 1 3 3 2 1 2 2 1 2 4 4 3 4 5 5 4 5 5 4 5 6 6 7 8 8 8 8 8 9 9 10 12 13 15 18 18 19 20 20 20 22 24 25 25 25 25 25 24 26 27 26 26 29 30 28 26 25 24 23 22 20 18 19 20 21 22 24 26 27 26 24 25 25 25 24 23 20 17
2 2 2 2 1 0 1 2 3 4 3 1 1 1 1 2 4 5 4 5 5 4 4 4 5 5 5 5 6 7 7 7 8 8 8 9 9 9 11 12 14 17 20 21 23 23 20 20 23 24 25 26 25 24 24 24 26 27 26 28 30 29 26 25 24 23 22 20 17 16 19 21 22 24 27 29 27 23 21 22 23 21 19 18 16 15
2 3 3 3 2 2 4 5 5 5 4 2 2 3 3 6 7 6 5 6 6 4 3 3 4 6 5 5 6 6 6 7 9 9 9 10 10 10 12 14 16 18 21 23 25 25 23 23 24 24 26 27 25 24 25 26 26 27 28 30 29 26 23 23 22 20 19 16 15 19 21 22 25 28 30 30 28 26 25 24 22 20 18 17 15 13
3 1 2 2 2 3 4 5 5 5 6 5 4 4 5 6 7 6 5 6 6 5 3 3 5 6 6 6 6 6 7 9 9 10 10 10 11 11 12 15 18 20 21 23 25 26 24 23 24 23 25 27 26 25 26 27 26 26 29 30 27 23 22 21 19 17 15 15 18 23 25 27 29 32 32 30 28 27 25 23 21 19 17 15 12 10
3 0 1 2 3 3 3 4 4 4 6 7 6 7 7 7 6 5 4 5 6 5 5 5 6 6 6 7 7 8 10 10 9 10 10 9 11 11 10 12 17 21 23 24 26 27 24 21 21 22 24 26 27 26 26 26 25 25 27 27 25 23 22 20 17 15 16 19 22 26 30 32 34 34 32 30 27 24 21 19 18 16 14 12 11 10
2 1 0 2 4 3 4 6 8 8 9 8 6 6 7 7 7 7 6 5 5 5 6 7 6 6 6 7 8 9 10 10 10 11 10 9 10 10 9 12 17 21 24 26 27 26 23 21 22 23 23 25 28 27 26 25 25 25 26 26 26 25 22 19 18 19 22 25 28 30 33 34 34 34 32 30 27 23 20 18 17 16 14 12 10 8
1 2 2 2 3 4 6 7 8 8 8 8 7 6 5 6 7 8 9 8 7 7 8 9 8 8 7 9 9 9 10 12 11 11 11 11 10 10 12 15 19 21 23 25 26 25 23 23 24 24 24 26 27 27 26 25 23 23 22 23 23 22 20 20 22 24 27 29 31 33 35 36 35 34 31 28 26 23 21 18 17 15 13 11 10 8
1 3 3 1 3 5 5 7 7 5 6 8 9 8 6 6 7 8 8 8 8 8 8 9 10 10 10 11 11 9 9 12 12 11 11 10 10 13 16 18 20 20 22 24 24 24 24 25 25 25 25 26 26 26 24 20 16 14 14 15 15 17 20 23 26 27 28 29 31 33 35 35 34 33 30 27 25 23 20 17 15 13 13 12 10 8
3 5 4 3 4 6 7 8 8 5 6 9 10 9 7 5 6 9 10 9 10 9 8 8 9 10 10 12 13 11 10 12 13 12 10 11 14 18 20 21 20 19 21 22 21 21 23 25 25 24 24 24 24 24 18 11 7 6 8 9 12 18 23 27 27 26 25 26 28 29 31 31 30 29 29 27 25 22 20 18 16 14 13 12 10 7
Wind_Direction
66 62 330 215 229 242 230 197 183 185 140 127 119 122 157 172 280 278 267 289 310 102 262 222 239 273 276 261 250 281 336 233 227 199 179 184 183 194 199 204 210 214 219 200 191 192 192 194 192 189 188 185 181 178 181 181 180 180 178 175 170 169 170 170 168 165 163 163 163 166 175 177 162 159 168 176 188 194 165 115 46 0 336 340 358 14
52 57 248 224 221 226 211 183 149 119 94 98 129 129 163 197 246 268 252 305 337 113 265 290 324 281 268 264 250 193 144 224 224 211 203 199 192 196 202 208 209 209 207 181 184 188 193 198 196 192 190 187 183 181 183 184 183 181 180 179 173 170 172 174 174 172 171 174 174 174 177 172 163 163 172 182 190 199 187 143 97 64 27 5 15 26
18 285 256 242 205 151 111 132 122 108 94 82 130 135 301 254 272 291 294 328 357 83 273 345 14 288 276 284 274 207 178 219 231 213 203 198 190 195 202 202 202 202 197 187 185 189 195 199 197 196 195 191 187 185 186 186 185 183 182 182 178 173 174 176 178 176 174 176 178 178 173 166 164 167 174 183 189 199 206 184 141 41 22 12 12 29
332 254 241 211 146 130 82 98 112 108 90 90 124 141 261 278 318 292 303 325 346 57 233 47 21 299 300 318 299 274 212 205 246 238 225 204 197 201 199 193 194 198 197 194 195 191 192 197 199 200 198 193 191 189 188 188 188 186 184 184 181 177 176 177 177 175 175 177 179 176 168 165 164 165 169 170 167 163 159 156 139 61 25 6 5 32
252 241 187 121 127 150 141 92 117 134 277 300 169 160 198 246 212 223 282 327 345 10 42 60 18 315 325 338 301 302 331 0 296 273 269 251 230 215 192 192 198 198 198 196 194 186 185 196 201 200 198 195 195 194 191 190 190 187 185 186 185 180 177 178 176 175 177 177 177 175 168 166 162 160 166 167 163 155 145 143 140 110 36 27 54 84
261 259 155 120 95 115 147 202 179 157 180 310 244 200 187 180 200 233 344 21 29 348 342 36 0 292 320 319 274 306 345 328 340 341 249 237 244 230 200 203 206 205 205 201 196 192 191 195 195 195 198 199 200 200 195 192 191 188 187 187 187 183 179 180 179 179 182 181 180 178 174 174 170 169 175 178 173 166 159 156 158 164 60 74 106 103
260 308 63 112 116 93 123 245 234 163 129 306 246 197 162 131 125 132 73 71 80 270 302 46 155 255 319 314 278 325 343 313 317 315 271 227 215 219 221 215 206 205 207 207 205 198 192 189 185 192 201 203 204 202 196 193 191 189 189 188 188 187 182 183 183 184 188 189 190 191 186 184 183 183 183 178 169 163 164 163 163 158 112 113 137 117
229 315 29 72 93 88 116 254 233 151 119 237 227 144 129 126 145 163 146 149 208 249 320 14 110 193 300 280 289 346 348 321 318 304 294 282 222 213 230 232 217 211 206 203 204 197 191 189 187 195 203 205 204 200 196 193 191 191 190 188 189 188 184 186 187 189 193 195 198 202 199 195 195 194 184 171 167 167 169 167 166 160 127 116 128 125
225 257 303 85 79 87 205 215 194 152 138 241 192 125 129 138 148 143 125 135 349 19 313 324 37 147 274 274 310 1 355 314 306 291 294 309 311 279 248 237 225 220 214 207 204 196 190 191 195 201 204 204 201 198 196 193 191 192 191 189 190 188 186 188 191 193 197 199 205 209 207 203 203 201 187 174 173 175 177 177 176 172 153 133 128 129
246 233 225 138 106 224 229 210 177 158 179 227 136 98 71 72 77 86 102 111 49 54 246 272 287 174 270 284 306 354 358 284 286 288 290 305 318 308 284 261 236 223 217 212 208 200 196 196 199 202 201 198 198 198 196 193 192 193 192 191 191 189 188 190 194 197 200 203 210 215 212 209 207 204 193 183 183 185 187 190 188 181 169 155 147 142
289 277 200 147 179 202 178 143 168 147 136 132 94 64 50 43 38 48 62 85 69 348 253 254 230 138 264 280 274 239 216 265 281 301 309 317 318 299 286 277 253 227 213 209 209 207 200 197 197 197 195 193 193 194 194 194 194 194 195 194 193 192 191 193 196 200 203 206 211 217 215 212 211 207 198 192 190 191 193 197 196 188 178 168 161 156
333 332 242 259 232 158 105 73 37 60 84 98 75 66 65 0 15 33 355 47 89 262 265 265 159 114 206 268 295 281 275 280 265 273 301 315 313 297 291 296 274 236 209 203 206 200 185 182 184 187 189 188 187 189 193 194 195 196 198 197 196 196 195 196 199 202 206 209 212 217 216 213 213 211 204 201 198 196 195 196 197 191 183 174 169 165
321 262 265 305 288 144 108 73 7 14 41 79 84 77 75 336 13 18 304 0 184 243 269 291 113 130 233 243 281 295 297 300 273 253 277 293 300 309 334 342 321 274 223 204 191 173 169 178 182 184 185 183 186 190 192 193 196 198 200 199 198 199 198 199 202 205 209 212 214 216 216 214 214 215 212 210 207 204 200 197 197 195 188 182 178 175
318 302 320 326 292 151 126 143 205 315 73 127 144 128 118 109 64 303 266 274 259 262 299 305 285 281 270 265 284 290 291 297 308 294 280 278 287 319 22 25 15 1 299 235 189 169 173 184 188 192 190 188 191 192 191 193 196 199 201 201 201 201 201 202 204 208 211 214 215 215 216 216 216 217 217 217 216 213 208 203 201 199 196 192 186 179
281 306 293 199 270 320 163 180 170 149 141 170 160 134 144 158 153 222 224 196 239 265 322 308 259 188 202 281 294 287 291 308 340 320 297 292 288 336 50 42 33 26 3 338 247 187 166 166 180 196 200 199 199 195 194 196 197 199 201 202 202 203 203 204 206 209 213 215 215 214 215 217 219 221 221 222 223 220 215 211 207 204 201 200 194 181
156 260 262 259 282 284 213 202 137 115 105 233 135 111 157 186 151 168 190 168 179 176 270 258 230 219 203 293 301 309 315 320 338 331 343 340 323 22 50 38 32 33 29 26 3 307 176 166 172 183 194 203 206 204 204 202 201 204 206 205 205 204 205 206 208 210 214 216 215 213 213 217 221 223 223 223 224 224 221 219 216 211 206 203 198 187
104 271 282 310 330 357 270 217 125 126 180 183 129 157 208 171 122 117 194 60 76 143 251 248 228 285 352 324 313 333 322 318 346 9 40 18 4 36 43 29 29 28 31 38 32 7 329 197 180 181 187 195 202 206 209 208 208 211 212 212 212 210 209 210 210 212 214 215 214 213 213 217 221 223 223 225 225 224 223 223 223 219 213 207 201 195
160 270 294 337 36 320 337 55 45 49 124 126 180 207 186 107 94 108 155 12 46 198 269 301 192 230 111 186 291 313 300 359 359 0 30 28 30 44 36 27 28 15 17 33 38 32 17 3 198 191 190 193 200 204 205 208 214 218 218 219 218 216 215 215 214 214 215 216 216 215 216 218 222 224 225 227 228 226 224 224 224 221 218 213 208 203
135 270 295 297 199 302 347 50 12 350 56 128 184 194 114 119 196 99 135 148 132 216 281 315 270 227 200 213 231 222 209 5 344 339 24 31 30 37 27 29 34 23 20 31 36 32 23 19 23 166 192 194 195 200 204 208 213 216 219 223 223 223 221 220 220 218 217 217 218 221 223 222 224 226 227 229 229 228 228 227 226 223 221 219 214 211
83 118 283 293 268 291 348 38 263 301 344 39 45 17 34 130 164 158 140 161 170 192 244 308 317 266 227 231 179 169 206 253 316 348 19 14 6 13 13 18 30 37 36 35 40 36 26 25 32 44 87 202 202 203 204 204 208 212 216 220 223 225 225 226 226 223 220 218 219 225 229 229 228 228 229 230 229 229 230 231 229 226 224 221 219 217
49 102 244 294 326 293 288 310 201 189 184 22 22 346 342 69 121 164 83 111 135 154 180 195 294 272 248 228 174 177 210 232 265 344 354 349 350 356 6 12 14 26 30 28 40 45 38 33 39 49 55 61 135 195 202 203 206 209 213 218 221 223 222 224 227 226 224 221 220 225 230 231 230 230 230 230 230 230 231 232 231 228 226 223 220 219
37 124 194 292 333 289 238 248 204 176 172 163 180 198 171 137 133 143 295 312 93 137 167 159 215 267 257 206 208 213 212 233 287 328 335 340 348 354 5 11 12 18 17 12 22 38 48 45 45 54 61 62 62 63 74 175 207 211 215 220 222 224 224 225 226 226 225 224 222 225 230 233 233 231 231 230 230 230 231 232 231 229 226 222 219 218
135 105 119 273 270 241 250 260 161 168 155 135 147 153 137 139 124 134 204 251 153 124 150 132 165 269 265 229 232 247 238 261 301 337 16 356 352 2 6 7 15 24 17 7 13 20 31 40 45 51 57 57 55 55 55 55 55 193 231 230 226 226 228 229 229 228 226 226 225 225 230 236 237 234 232 231 229 229 229 231 231 229 227 222 217 215
87 77 36 297 295 300 302 325 32 43 81 93 27 47 111 139 130 147 180 176 161 180 148 118 237 264 270 272 293 304 291 281 343 11 59 36 8 3 4 5 8 15 17 17 22 21 22 30 36 39 41 41 40 42 45 46 46 44 33 324 250 239 237 234 232 230 227 225 225 225 230 236 236 234 233 233 230 228 228 229 229 228 226 221 216 213
307 4 90 19 335 329 336 349 352 349 31 100 303 334 73 100 98 109 110 82 135 216 160 156 232 248 266 318 352 341 357 83 74 37 79 74 31 4 357 359 358 4 12 13 17 24 24 28 31 32 33 34 32 30 31 34 35 37 37 32 10 300 262 249 240 234 228 225 224 224 228 233 234 231 231 232 231 228 226 226 227 226 223 219 214 211
216 189 142 136 226 244 259 275 268 279 310 28 307 299 303 108 112 127 82 91 211 246 169 168 217 258 280 307 337 343 23 90 92 60 69 76 45 5 355 358 2 11 11 6 9 14 12 18 29 30 29 30 30 29 26 26 25 24 26 28 26 17 343 288 258 243 233 227 225 226 228 231 232 232 231 231 230 228 225 224 224 221 218 216 212 207
124 323 190 168 190 203 205 229 225 174 194 229 213 245 251 139 118 110 100 142 196 192 203 213 184 164 272 278 299 313 326 129 129 90 77 56 8 349 345 350 355 3 1 354 358 0 4 15 22 22 22 22 25 26 24 21 19 16 14 14 14 15 12 358 312 264 245 234 229 229 230 231 233 234 233 231 229 227 223 221 220 217 214 212 208 204
88 339 259 174 207 220 213 239 258 117 221 213 179 212 242 231 120 126 165 204 169 140 247 244 187 176 247 252 248 259 263 239 220 196 135 275 317 340 336 339 346 349 348 353 359 3 9 12 10 10 13 13 14 17 17 16 13 10 8 5 3 1 0 360 353 317 268 248 239 235 234 234 235 235 234 231 228 224 221 220 218 214 210 206 202 200
110 265 246 172 254 260 244 255 263 243 254 237 188 206 224 207 173 183 208 201 156 178 242 229 181 201 236 235 230 230 219 214 220 226 268 295 330 8 358 356 355 351 350 356 359 359 358 354 350 353 357 1 5 6 6 5 4 2 0 358 356 353 350 347 346 341 312 268 251 245 242 239 236 234 232 229 225 223 223 221 215 208 204 200 198 196
128 251 227 180 280 292 277 265 243 215 250 271 240 225 216 205 201 205 219 205 183 218 243 199 187 221 230 217 224 222 199 205 234 271 307 331 345 324 0 20 1 350 347 346 339 332 331 325 324 331 339 348 356 357 356 355 355 353 351 350 349 347 346 341 336 335 330 303 273 260 251 243 238 234 230 227 226 225 223 219 210 202 197 195 193 191
101 257 237 173 286 285 278 282 260 217 213 240 254 248 228 229 231 224 231 216 200 244 255 213 209 244 249 222 221 233 265 222 253 271 266 244 229 213 176 70 344 333 330 327 323 320 317 307 305 313 322 332 341 345 347 346 345 343 342 343 343 342 341 337 331 327 324 317 302 281 263 249 241 235 231 228 225 222 220 213 202 195 191 189 187 186
100 242 315 41 281 263 233 251 263 265 252 248 249 241 224 226 225 217 215 194 187 221 244 230 232 250 246 218 207 236 317 233 233 242 238 226 216 190 165 171 286 299 303 308 311 316 316 310 308 308 311 320 328 333 337 337 336 335 335 335 336 336 336 333 328 322 317 316 312 297 276 259 246 237 232 227 221 216 212 204 195 191 189 188 185 184
162 206 235 148 245 266 218 230 254 320 308 266 239 209 212 216 217 228 240 217 199 198 206 222 238 241 210 172 174 198 222 229 236 236 214 207 216 205 195 209 252 273 281 288 294 299 300 297 300 303 306 312 318 322 327 328 325 325 327 328 328 329 329 327 324 318 313 312 312 303 286 268 252 241 233 224 216 211 204 197 193 190 188 188 187 185
160 206 228 177 201 278 282 281 331 307 263 258 239 209 212 216 217 221 229 228 215 196 191 227 245 216 171 166 174 188 203 218 240 254 244 207 205 227 237 232 238 260 274 278 279 277 280 287 296 303 305 307 312 316 319 319 317 318 320 321 322 322 321 320 318 315 311 310 310 306 291 271 255 243 232 221 211 206 198 192 190 187 186 188 187 184
210 207 228 186 189 247 341 53 64 245 250 270 298 283 238 211 209 214 234 254 235 205 226 294 286 190 161 167 180 178 204 265 311 305 287 253 207 216 239 247 248 258 274 281 279 275 281 289 297 303 306 308 312 314 315 316 316 316 315 315 316 316 315 313 311 310 309 308 308 306 292 271 253 239 227 216 206 199 194 190 188 186 187 188 185 183
184 179 189 184 195 212 114 121 185 244 282 311 318 330 7 29 73 181 260 300 333 204 218 342 352 345 23 338 300 350 331 327 337 306 274 256 221 213 224 240 246 248 260 270 273 277 285 291 295 298 302 307 311 313 314 316 316 314 312 311 310 308 308 306 303 304 306 306 306 303 290 269 248 232 220 209 199 194 191 189 187 186 185 184 183 183
163 148 164 215 218 168 173 217 243 298 311 307 318 346 353 338 29 129 231 292 322 282 175 126 101 3 339 304 306 344 9 15 359 310 279 264 235 223 227 238 246 249 256 266 275 282 288 292 293 295 297 301 305 309 312 314 314 311 309 307 305 303 301 298 296 298 300 301 301 299 287 265 242 226 214 202 195 192 191 189 186 183 181 180 180 181
151 160 166 185 235 122 127 290 308 316 288 266 260 287 287 240 229 197 163 312 326 322 160 129 129 218 249 275 302 6 50 41 340 289 287 285 258 238 241 254 261 265 267 273 280 283 286 288 290 292 293 294 298 304 309 311 310 307 303 302 301 300 297 293 293 294 296 296 298 297 284 261 239 223 210 201 196 193 191 188 183 179 179 180 180 179
52 39 119 136 256 96 130 233 240 218 244 246 249 279 294 239 194 144 88 263 291 316 306 205 296 270 250 251 232 119 101 78 257 256 264 269 262 245 243 256 266 272 274 276 278 278 281 287 288 285 283 283 290 300 307 307 304 300 296 295 295 293 291 289 289 292 294 296 297 294 280 258 236 220 210 203 197 192 187 183 179 176 176 178 177 175
20 15 56 116 243 222 163 213 240 230 241 244 246 273 296 295 132 110 2 255 264 292 276 209 272 277 255 229 178 142 165 217 243 257 257 259 265 256 245 251 260 266 270 274 276 278 280 282 278 273 273 278 287 297 303 302 298 293 288 288 288 285 283 284 287 292 295 296 295 289 274 253 232 219 211 203 195 188 184 179 172 168 169 172 175 179
0 354 8 142 214 218 189 221 271 264 241 250 263 273 293 340 109 148 225 233 250 271 243 199 247 268 248 206 183 184 217 231 243 273 284 291 294 278 265 266 268 268 271 274 279 283 280 274 269 267 271 279 288 295 299 297 292 286 285 285 282 279 280 284 287 291 293 294 292 283 267 246 227 215 209 201 191 183 175 169 164 165 170 177 181 183
357 334 335 30 192 231 187 194 289 290 243 210 249 279 307 16 196 229 237 230 241 257 246 221 239 251 238 223 217 225 249 259 266 280 285 283 282 279 278 281 281 280 280 280 282 283 277 272 269 267 271 280 287 292 294 291 283 280 281 280 276 278 283 285 286 288 289 290 288 276 254 231 215 206 200 190 180 170 162 161 167 175 177 177 176 174
186 265 305 260 221 270 107 138 292 273 239 217 264 317 5 74 229 259 281 272 243 243 249 243 236 227 217 229 240 245 257 269 274 274 272 270 272 275 279 282 284 286 287 285 284 282 276 271 269 270 274 281 286 288 288 282 275 274 274 273 275 281 284 284 284 285 285 285 281 261 233 215 204 195 184 172 164 161 159 163 173 177 174 169 167 166
213 195 258 254 223 102 163 198 214 216 216 218 224 217 212 255 263 269 285 285 264 240 234 242 248 240 225 234 259 265 266 272 277 280 285 286 285 283 283 283 284 286 289 288 287 286 281 271 269 272 278 282 285 286 283 274 268 268 268 269 275 280 280 280 282 282 280 277 262 232 209 197 188 179 169 159 156 159 161 163 166 167 166 165 164 166
217 174 184 223 234 215 212 230 254 262 267 276 219 218 257 292 291 276 261 266 265 243 218 240 272 275 271 274 281 283 282 279 282 286 288 288 287 285 285 286 284 284 286 287 287 287 283 275 273 275 280 282 283 282 278 272 264 262 264 270 274 275 275 278 280 276 269 255 225 200 187 180 173 164 157 153 154 156 157 159 162 164 168 173 172 171
261 161 153 202 265 289 262 257 272 279 282 281 257 247 265 280 284 281 265 253 253 250 246 258 272 278 287 290 285 280 277 275 279 283 282 283 286 284 282 285 287 287 286 285 285 285 282 278 276 277 279 282 282 279 277 274 267 263 267 272 272 271 272 275 273 262 242 213 190 178 169 160 153 148 146 147 151 152 153 159 167 171 175 179 175 170
283 35 133 222 282 310 296 287 292 282 281 290 296 291 287 278 272 275 257 236 243 260 266 264 265 269 276 277 272 271 273 274 278 281 281 281 282 281 280 282 284 284 283 281 282 283 281 277 276 277 278 281 282 282 280 278 274 271 273 273 270 268 269 266 252 229 199 177 167 163 156 149 144 142 142 144 148 152 154 157 163 170 175 178 176 174
268 20 330 245 245 250 265 281 290 288 287 293 293 287 289 292 293 295 282 261 262 277 276 269 270 274 279 281 278 278 281 282 280 279 279 279 277 276 276 273 273 277 278 278 280 281 277 272 273 274 275 278 282 284 283 281 280 278 275 272 268 264 258 243 219 194 173 162 156 150 145 142 140 140 140 142 146 151 153 155 162 171 174 171 168 164
211 299 283 265 277 283 280 283 288 295 298 294 284 268 256 262 280 293 295 294 297 295 289 284 282 278 277 280 282 282 281 281 276 272 273 275 274 273 272 270 270 273 274 276 278 277 273 272 272 272 273 277 281 284 283 282 282 279 274 270 266 255 234 211 191 174 162 155 148 142 138 137 137 139 143 149 155 160 165 172 176 173 163 151 142 137
90 272 267 292 295 278 270 275 283 292 292 286 287 285 270 260 273 284 285 286 285 280 278 282 284 282 273 266 264 265 268 269 268 267 268 269 269 271 272 272 273 273 272 274 276 275 273 272 271 272 275 277 279 282 281 277 273 271 267 264 253 231 205 185 169 159 153 147 142 138 138 138 142 147 154 161 168 172 175 176 171 158 146 141 136 132
189 236 235 234 255 255 260 271 275 274 271 272 278 282 278 270 273 275 275 276 277 275 272 272 277 282 279 268 258 250 251 261 267 268 268 268 269 270 272 273 272 270 271 273 274 273 273 273 273 275 276 276 279 279 271 251 232 246 253 242 221 200 182 165 152 146 143 141 139 141 142 144 151 160 164 167 170 168 160 154 150 147 143 139 132 121
Height
769 773 778 779 777 775 775 779 780 781 781 781 783 784 785 785 780 774 771 772 775 770 771 778 774 770 768 763 763 767 767 766 767 770 773 774 776 778 779 779 779 779 778 779 781 781 782 784 785 786 787 788 790 791 792 793 795 796 798 799 799 801 803 804 806 808 809 810 811 812 812 813 813 814 815 815 816 816 817 817 817 817 817 817 817 818
772 776 778 775 773 774 778 784 783 784 784 781 782 782 783 785 779 772 772 774 775 771 772 777 772 768 766 760 763 769 767 764 764 766 770 772 774 776 778 778 779 779 779 780 780 781 782 783 784 785 786 787 788 790 791 793 794 795 797 798 798 799 801 803 805 807 808 810 811 811 812 813 814 815 815 816 816 817 817 818 818 818 818 818 818 819
776 776 774 772 776 780 782 785 783 782 783 782 782 781 780 784 781 774 772 775 776 771 769 772 769 764 764 761 762 766 765 763 763 763 764 767 770 773 774 776 777 778 778 778 779 780 780 782 783 784 785 786 787 789 790 792 793 794 796 797 798 798 800 803 805 807 808 809 810 811 812 813 814 815 815 816 817 817 818 818 819 819 819 819 819 819
780 775 773 775 778 778 779 782 782 780 781 782 781 780 780 785 784 778 774 774 777 777 774 772 771 766 763 762 758 761 766 766 768 766 763 765 766 767 769 771 774 775 776 776 776 778 780 781 782 782 783 785 787 788 789 791 792 793 794 796 798 798 800 802 804 807 808 809 810 811 812 813 814 815 816 816 817 818 818 819 819 819 820 820 820 820
776 771 773 776 775 774 775 779 779 778 781 782 781 779 779 779 779 780 779 776 775 780 778 774 775 770 767 767 760 761 765 763 767 767 763 765 765 766 768 768 770 771 771 773 773 776 778 778 779 780 782 784 785 786 787 789 790 792 794 796 798 798 799 802 804 806 808 809 810 811 812 813 814 815 816 816 817 817 818 819 820 820 820 820 820 821
771 770 772 773 774 775 775 776 776 776 780 782 777 773 774 774 776 779 780 780 779 782 783 782 784 779 772 769 763 764 764 758 762 763 759 763 765 766 768 767 767 768 768 769 770 771 772 774 777 779 781 782 782 783 785 787 790 792 793 795 797 798 799 802 804 806 807 809 810 810 811 811 812 814 815 815 816 817 818 819 820 820 820 821 821 821
770 770 771 771 773 775 776 776 776 777 782 783 775 771 775 776 776 778 778 781 785 786 788 789 789 786 778 767 763 768 767 759 759 757 756 762 764 764 764 764 765 766 766 767 767 769 770 773 776 777 778 778 779 781 784 787 789 791 792 793 796 797 799 801 803 805 807 808 810 810 810 810 811 812 813 815 816 816 817 818 820 820 821 821 821 822
769 767 768 770 771 775 776 774 774 776 779 779 774 772 775 774 775 778 779 782 786 787 788 788 787 790 786 772 768 773 768 761 760 756 753 756 761 763 763 763 764 763 762 763 763 765 767 770 772 772 773 774 776 780 783 786 788 789 790 792 794 796 798 800 802 805 806 808 809 810 810 811 811 812 813 814 815 816 817 818 820 820 821 821 822 822
770 764 763 766 769 774 771 767 771 773 772 771 773 776 775 774 776 778 781 785 791 790 787 788 788 793 791 776 771 775 770 765 762 757 754 755 759 763 762 761 761 759 758 758 759 761 763 765 766 767 768 771 776 779 781 784 786 788 790 792 793 795 797 799 801 803 806 807 808 810 811 811 811 812 813 814 815 816 817 818 820 820 821 822 822 823
769 766 764 764 766 766 763 765 770 768 767 770 775 778 777 782 785 785 786 786 791 796 790 786 788 794 793 776 769 772 770 767 763 759 760 762 762 762 758 757 756 755 755 754 756 757 758 760 761 764 768 772 775 778 781 784 786 788 789 791 793 794 795 797 800 802 804 806 808 809 810 811 812 812 813 814 815 816 817 818 819 820 821 822 823 823
767 767 767 763 760 759 759 769 774 769 771 774 773 773 775 782 785 788 792 788 794 801 791 787 790 794 794 780 770 773 772 772 770 765 765 765 765 763 759 755 752 751 751 751 752 754 757 760 762 766 770 772 775 777 780 783 785 787 788 789 791 792 794 795 798 801 803 805 806 808 809 810 812 812 813 813 814 815 816 817 818 820 821 822 823 824
768 766 766 759 756 759 758 766 774 772 773 773 770 772 778 785 787 790 794 792 801 803 792 795 799 796 794 783 774 776 776 777 777 772 770 767 767 765 759 753 750 749 749 748 750 755 759 762 763 766 768 771 774 776 778 780 783 785 786 788 790 791 793 794 797 799 801 803 805 806 808 809 811 812 812 812 812 813 815 816 818 819 820 821 822 823
766 762 765 760 756 758 757 764 772 772 772 772 773 778 786 795 799 798 800 802 805 800 796 803 801 794 791 782 779 781 777 778 778 775 773 770 768 764 757 752 750 750 750 749 750 754 758 761 762 763 765 767 770 772 774 777 780 782 783 786 788 789 791 793 795 798 800 802 803 804 806 808 810 811 811 811 812 813 814 815 817 818 819 821 822 823
767 763 764 760 756 756 757 763 769 771 772 772 773 779 788 800 808 809 811 814 808 798 799 806 800 794 789 782 782 783 780 778 776 773 772 770 769 764 757 754 751 751 751 751 752 752 755 759 761 763 764 765 767 769 772 775 777 780 782 784 786 787 790 791 794 796 798 799 801 803 805 807 809 810 811 811 811 812 813 814 816 817 818 819 821 822
779 774 764 759 760 758 756 758 761 763 769 773 774 777 783 790 796 801 802 802 798 797 803 805 798 791 786 782 782 780 780 779 774 773 772 770 769 762 755 755 753 752 753 754 755 755 756 758 760 763 765 767 768 770 772 774 775 777 779 781 783 785 787 789 792 794 795 797 799 801 803 805 807 808 809 810 811 811 812 813 815 816 817 818 820 821
786 778 764 761 763 759 757 758 759 759 768 780 780 777 780 778 779 794 805 801 797 798 801 800 795 789 785 783 781 780 780 778 775 774 772 770 769 761 756 757 756 755 755 755 756 758 758 759 760 762 765 768 771 773 774 775 777 778 779 780 781 783 786 788 790 791 793 796 798 800 801 803 805 806 808 809 810 810 811 812 813 815 816 817 819 820
783 776 764 763 762 759 760 759 759 760 766 779 781 774 777 776 773 789 809 813 809 801 799 800 792 787 788 784 779 781 781 777 775 773 771 770 768 763 762 761 760 758 757 756 757 758 759 760 760 762 764 767 769 772 774 776 778 780 781 783 784 785 787 788 789 790 792 794 796 798 799 801 802 804 805 806 808 809 810 811 812 813 815 816 817 818
782 775 765 764 762 759 762 760 759 761 764 772 775 770 774 779 776 782 795 808 812 805 800 801 794 787 789 785 780 782 781 776 775 774 771 770 768 767 768 766 764 763 761 759 758 758 760 760 761 761 763 765 767 770 772 775 778 780 782 784 785 786 786 787 789 790 792 793 795 796 798 799 800 801 803 804 806 807 808 809 810 812 813 814 815 816
782 777 768 768 768 764 762 761 763 765 765 767 767 767 773 778 778 783 790 798 806 808 803 802 803 796 786 780 777 779 781 779 779 779 775 773 772 772 772 770 768 767 766 764 761 761 761 761 761 762 763 764 766 768 771 773 776 779 781 783 784 785 786 787 789 790 792 793 796 798 799 799 800 801 802 803 804 806 806 807 809 810 812 814 815 815
781 781 775 770 770 768 764 765 769 769 767 766 767 770 775 777 780 784 789 790 794 806 808 802 801 793 782 782 781 778 782 782 780 780 777 777 777 776 775 775 772 771 770 769 766 765 765 764 763 762 763 765 766 768 770 772 774 775 777 780 781 783 785 786 788 789 791 793 795 797 798 799 800 800 801 802 802 804 804 805 807 808 810 812 814 815
780 784 781 771 768 771 770 771 773 771 770 769 769 773 776 781 786 786 788 792 790 797 807 806 798 786 782 790 786 778 781 782 781 780 779 779 778 777 778 777 776 776 774 773 771 770 769 768 766 764 764 766 767 768 770 771 773 774 775 777 778 780 782 783 785 787 788 790 792 793 793 795 797 798 800 800 801 802 803 804 805 806 808 810 811 813
780 783 783 776 772 772 771 774 777 775 776 774 770 771 774 777 783 784 790 797 793 793 802 805 796 783 782 789 787 781 781 782 783 783 780 780 780 779 780 780 780 779 778 777 775 773 772 771 770 768 768 769 769 769 770 771 773 774 775 776 776 778 778 779 781 783 785 787 788 789 791 793 795 796 797 798 798 800 800 801 802 804 805 807 809 810
782 784 783 779 776 775 775 780 784 781 778 776 775 777 778 776 776 779 785 791 793 798 803 802 796 786 782 787 785 782 783 783 785 783 780 781 781 781 782 782 783 782 781 780 778 775 774 773 772 771 770 771 771 770 771 772 773 775 775 776 777 777 777 778 779 780 782 784 785 788 791 792 793 794 795 795 796 797 798 799 800 801 803 804 806 807
782 785 785 783 779 776 774 777 783 781 777 776 778 782 782 778 777 779 782 784 787 794 797 798 799 788 780 784 786 785 787 786 786 784 782 781 782 783 783 782 783 783 782 781 780 779 777 774 773 772 771 771 771 770 771 771 772 774 774 775 776 777 777 778 778 779 780 782 783 787 789 788 788 790 792 792 792 793 794 796 797 799 800 802 803 805
782 786 789 791 790 785 780 779 779 778 778 778 782 785 784 782 783 784 787 788 787 791 791 789 791 787 780 783 786 787 788 785 785 786 784 783 783 783 784 783 783 783 782 781 780 780 779 778 776 775 773 772 770 770 770 771 772 773 774 775 775 776 777 777 778 778 779 780 781 783 783 783 784 785 786 788 789 790 791 792 794 796 798 800 801 802
783 787 788 791 797 798 793 787 783 782 784 785 786 785 783 783 783 782 787 790 790 796 796 786 782 784 783 782 783 785 787 784 785 788 787 786 786 785 785 785 785 784 783 782 781 780 780 779 777 776 775 774 773 773 773 773 774 774 774 775 775 776 776 776 776 776 777 778 779 779 779 780 780 781 781 783 785 786 788 789 791 794 796 798 799 801
788 790 787 786 790 792 789 784 785 788 787 785 786 785 783 785 785 783 788 791 789 794 796 787 783 785 782 780 781 782 785 785 784 786 786 787 787 787 787 787 786 786 786 785 783 782 781 779 778 778 777 777 777 777 776 776 776 775 775 775 775 775 775 775 775 775 775 776 776 777 777 777 778 778 778 780 781 783 785 786 788 790 792 795 797 799
790 791 790 790 787 787 787 783 787 791 786 782 784 783 782 784 786 785 785 786 786 791 791 785 784 785 780 778 780 781 784 785 786 786 787 787 788 789 789 789 788 787 786 786 785 783 782 780 779 779 779 778 778 778 778 778 778 777 776 776 775 775 774 774 774 774 774 774 774 774 774 774 775 776 777 778 780 782 783 783 784 786 788 791 794 796
791 790 793 796 789 787 790 789 791 793 787 783 784 782 780 783 786 784 781 783 785 783 781 781 782 780 778 777 779 781 784 785 786 788 788 788 789 790 790 789 787 786 785 784 784 783 783 781 780 780 779 779 778 777 777 777 776 776 776 775 775 774 773 773 772 772 772 772 772 771 771 772 772 773 775 776 778 779 779 779 779 780 784 788 790 793
792 790 793 796 791 788 788 788 791 792 788 785 783 781 782 784 785 783 780 782 784 779 778 784 785 780 777 776 776 781 786 787 788 789 788 787 788 789 789 787 786 786 784 784 784 784 783 783 782 781 780 779 778 777 777 776 775 775 774 774 773 773 772 772 771 770 770 770 770 769 769 769 770 770 771 772 773 775 776 776 775 777 780 784 787 791
791 792 793 792 792 791 786 785 787 789 789 787 782 782 786 787 788 790 788 786 786 783 780 787 791 786 781 780 779 782 786 787 786 786 786 788 789 789 788 786 785 785 784 784 784 784 784 783 783 782 781 780 779 778 778 777 776 775 774 773 773 772 772 771 770 769 768 768 767 767 768 767 767 768 768 768 770 772 774 775 777 778 780 783 786 789
791 796 795 792 795 794 787 783 782 783 788 789 786 786 787 785 783 783 783 783 781 777 777 784 788 780 777 781 783 783 785 785 783 783 784 788 789 788 786 785 785 785 785 785 785 784 784 783 782 782 781 780 779 779 778 777 776 775 774 773 773 772 771 770 769 768 767 766 766 766 766 765 765 765 765 766 768 770 772 776 779 781 783 785 786 787
793 793 793 795 798 795 788 783 782 786 790 786 782 781 778 777 777 775 776 779 777 773 773 776 774 770 774 781 781 781 784 783 781 781 782 785 787 787 786 785 785 785 785 785 785 784 784 783 782 781 780 779 778 778 777 777 776 775 774 773 772 771 770 769 768 767 765 765 764 764 763 763 763 763 764 765 767 769 771 774 776 779 782 784 786 786
797 794 795 797 796 795 793 790 791 798 794 782 778 778 772 770 772 770 769 770 770 772 774 771 770 774 780 780 776 777 780 780 780 781 782 784 786 785 785 784 784 785 785 785 785 784 783 782 780 779 778 778 777 777 776 776 775 774 773 772 771 770 769 768 766 765 764 762 762 762 761 762 762 762 763 764 766 768 770 772 774 777 780 783 785 786
799 799 802 800 799 801 801 799 801 801 789 778 780 784 778 772 771 771 769 767 772 777 777 773 775 780 782 779 777 778 780 781 784 783 782 784 785 785 783 782 782 783 783 784 784 783 782 781 779 778 777 776 776 775 775 774 773 772 771 770 769 768 767 765 764 763 762 761 760 760 759 759 760 760 761 763 764 766 767 768 770 773 776 779 781 784
798 801 804 803 803 805 804 802 802 795 782 775 778 782 780 776 775 776 772 771 780 785 779 777 781 784 784 781 781 784 786 787 786 783 781 783 784 784 783 781 780 781 781 782 782 781 780 779 779 777 776 775 774 773 773 772 771 769 767 767 766 765 764 763 762 761 760 759 758 758 757 757 757 758 759 761 762 763 765 766 767 768 772 776 779 782
797 799 801 802 802 803 805 802 797 790 784 779 779 786 788 784 784 784 776 775 785 789 784 781 782 784 784 782 784 789 790 789 786 782 779 780 782 782 782 780 780 780 780 780 780 779 779 778 777 776 775 774 773 772 771 769 768 766 764 763 763 761 761 760 759 758 758 757 756 755 755 755 755 756 757 758 760 761 762 764 765 765 768 773 778 781
797 796 796 798 800 803 807 806 800 796 792 787 787 792 792 790 793 793 785 781 785 788 787 783 781 783 783 783 787 791 790 789 788 782 778 779 780 781 780 780 780 779 779 779 778 778 777 777 776 775 774 773 771 770 769 767 765 764 761 760 759 758 757 757 757 756 755 754 753 753 753 753 753 754 755 756 757 759 760 763 764 765 768 772 776 780
797 800 799 798 800 802 803 804 803 798 792 792 793 791 789 793 796 792 787 786 786 787 789 786 783 784 784 784 788 790 790 790 789 783 779 779 780 780 780 780 779 778 778 777 777 776 775 774 774 773 772 771 769 768 767 765 763 761 759 757 757 755 754 754 754 753 752 751 751 751 750 750 751 752 753 754 755 756 758 762 765 767 770 774 777 780
796 801 802 800 801 802 803 804 802 794 790 793 793 788 788 794 794 790 790 791 788 786 788 787 785 784 785 788 791 790 787 787 785 781 779 779 779 780 779 778 778 777 776 775 774 773 772 772 771 770 769 768 767 766 764 762 760 758 756 755 754 752 751 751 751 750 749 749 748 748 748 748 749 750 751 752 753 755 756 759 762 766 770 774 777 780
801 803 805 804 802 802 804 805 801 793 791 792 790 788 789 790 789 792 794 792 788 787 787 787 786 784 784 788 790 787 784 782 780 779 778 778 778 777 776 776 775 774 773 772 771 770 769 768 768 767 766 765 764 762 761 759 757 755 753 752 750 749 748 748 748 747 747 746 746 745 745 746 747 748 749 750 752 754 756 758 760 764 768 771 775 778
808 809 809 807 806 805 805 806 803 796 792 790 789 788 788 789 792 793 791 788 787 786 785 785 784 784 784 785 786 785 782 780 780 780 779 778 777 775 773 772 771 770 769 768 767 767 766 764 763 763 762 761 761 759 758 756 754 752 750 748 746 745 745 745 744 744 743 743 743 743 743 744 745 746 748 750 752 754 756 758 762 765 768 770 773 776
809 812 812 808 808 811 810 809 807 800 792 789 789 788 788 791 793 790 786 786 786 784 784 784 782 782 782 782 782 781 781 780 779 779 777 776 774 772 771 769 768 766 765 764 764 763 762 761 759 758 758 757 757 755 754 753 751 748 747 744 742 742 742 741 741 741 740 740 740 740 741 742 743 745 747 750 753 756 758 761 764 767 769 771 773 775
807 810 814 811 808 810 810 804 799 794 789 788 789 788 789 790 789 787 786 785 783 782 782 781 779 779 779 779 779 779 779 778 776 775 773 772 771 769 767 766 765 763 761 760 759 759 759 758 755 754 753 753 752 751 750 749 747 744 742 740 739 739 739 738 738 738 737 736 737 738 739 740 742 744 747 749 753 757 762 766 768 771 772 773 775 776
806 806 810 811 807 806 803 797 792 790 790 790 789 788 788 787 786 786 786 785 782 781 780 779 778 777 777 777 777 776 776 775 773 772 771 769 768 767 765 763 762 761 759 757 755 755 755 753 751 750 749 747 747 746 745 744 742 740 737 736 735 735 735 734 735 734 733 734 734 736 737 739 741 743 746 749 753 758 763 767 771 773 775 775 776 777
806 806 808 808 805 803 799 795 794 793 790 789 789 789 788 788 786 785 785 784 782 780 779 779 778 777 777 777 777 776 775 773 771 770 769 768 766 765 763 761 758 757 756 754 752 751 751 749 748 746 744 741 741 741 740 738 737 735 732 731 731 732 732 732 731 731 731 731 733 734 736 738 741 743 746 751 756 760 763 767 771 773 775 776 777 778
807 808 808 806 806 806 801 795 793 793 790 789 790 788 787 786 785 784 784 782 780 779 779 779 778 777 777 777 776 775 773 771 771 769 767 766 764 762 760 759 756 753 752 750 748 748 747 746 745 742 739 736 735 735 734 732 731 729 727 727 727 728 728 728 728 729 729 730 732 734 735 736 740 742 746 752 757 761 765 768 770 772 774 775 776 778
808 809 809 806 806 806 803 797 794 793 791 790 790 789 786 785 783 782 781 781 779 779 778 777 776 776 775 774 774 773 771 769 769 767 764 763 761 759 757 756 753 751 749 747 745 744 744 743 740 738 735 733 730 730 729 727 725 724 723 722 723 723 724 724 725 726 727 729 731 733 734 736 739 742 746 751 756 761 766 768 769 770 772 774 775 777
808 809 808 806 806 806 803 798 795 795 792 788 787 787 786 785 783 781 781 780 779 777 776 775 775 774 773 772 771 771 769 766 764 763 761 759 757 755 753 752 750 748 745 743 742 741 740 739 736 734 732 729 727 726 724 722 721 719 718 718 718 718 719 721 722 724 726 728 730 732 734 737 740 744 748 752 756 761 764 766 768 771 772 774 775 776
809 808 806 807 810 809 803 796 794 796 794 788 784 784 784 784 783 781 780 779 778 776 775 774 773 772 771 771 769 768 767 763 760 759 758 756 753 751 750 748 746 744 742 740 739 738 736 735 732 730 728 726 724 722 720 718 717 716 715 714 714 715 716 718 720 723 726 728 730 733 735 738 742 747 751 754 757 760 763 766 770 772 773 774 775 775
806 805 803 805 807 803 798 793 793 794 793 787 784 782 782 782 782 780 778 777 775 774 774 773 772 770 768 766 765 765 763 759 756 756 754 752 749 747 746 744 743 741 738 737 736 734 732 730 728 727 724 722 720 719 717 716 715 714 713 712 712 713 714 716 719 723 727 730 732 734 737 740 744 749 752 754 756 760 763 767 770 772 773 773 774 774